www.pogodaiklimat.ru

Погода и климат >> Архив погоды >> Россия >> Хабаровский край >> Николаевск-на-Амуре


АРХИВ ПОГОДЫ в Николаевск-на-Амуре

Время (UTC), дата Ветер
(напр.,м/с)
 
Видим.   Явления Облачность Т
(С)
Тd
(С)
f
(%)
Тe
(С)
Тes
(С)
Комфортность P
(гПа)
Po
(гПа)
Тmin
(С)
Tmax
(С)
R
(мм)
R24
(мм)
S
(см)
03 14.05 ЮВ 5 50 км 4/4 600 м
[Sc diur, vesp]
+8.6 +3.7 71 +5 +10 по сезону 1014.4 1008.8
06 14.05 В 5 50 км 1/1 1000 м
[Sc diur, vesp]
+10.4 +4.5 67 +8 +12 по сезону 1013.4 1007.8
09 14.05 В 6
{10}
50 км 3/3 600 м
[Sc]
+8.6 +3.6 71 +5 +5 по сезону 1013.1 1007.5 +10.5
12 14.05 ЮВ 8-11
{11}
20 км 6/6 600 м
[Sc Ac trans]
+8.4 +3.8 73 +4 +4 тепло 1014.4 1008.8
15 14.05 ЮВ 6
{12}
20 км 4/4 600 м
[Sc]
+6.8 +4.3 84 +2 +2 по сезону 1014.4 1008.8
18 14.05 ЮВ 6
{12}
20 км 4/4 600 м
[Sc]
+5.6 +3.9 89 +1 +1 по сезону 1014.6 1008.9
21 14.05 ЮВ 7-10
{11}
50 км 8/8 600 м
[Sc]
+5.8 +2.3 78 +1 +1 по сезону 1014.7 1009.0 +5.3
00 15.05 ЮВ 5
{12}
50 км 8/3 600 м
[Sc Ci sp]
+8.1 +3.4 72 +5 +8 по сезону 1014.4 1008.8
03 15.05 ЮВ 8-14
{14}
50 км 8/1 600 м
[Sc Ci fib]
+13.1 +3.2 51 +11 +13 тепло 1012.6 1007.1
06 15.05 ЮВ 6-10
{16}
50 км 10/1 600 м
[Sc Ac trans Ci fib]
+13.3 +3.6 52 +11 +13 тепло 1011.8 1006.2
09 15.05 ЮВ 8-12
{14}
50 км 8/1 600 м
[Sc Ci fib]
+12.0 +0.6 46 +9 +9 тепло 1012.0 1006.4 +14.2
12 15.05 В 5
{13}
20 км 8/3 600 м
[Sc Ci fib]
+7.7 +0.5 60 +4 +4 по сезону 1012.7 1007.1
15 15.05 ЮВ 9-14
{17}
20 км 10/8 600 м
[Sc Ci sp]
+4.9 +3.1 88 -1 -1 по сезону 1013.2 1007.5
18 15.05 ЮВ 8-12
{14}
20 км 10/10 600 м
[Sc]
+4.7 +3.1 89 -1 -1 по сезону 1013.9 1008.2
21 15.05 ЮВ 6-11
{14}
50 км 10/8 600 м
[Sc Ci sp]
+3.8 +1.3 84 -2 -2 по сезону 1014.3 1008.5 +3.5
00 16.05 ЮВ 8-14
{14}
50 км 10/3 600 м
[Sc Ci sp]
+7.3 +3.0 74 +2 +4 по сезону 1013.7 1008.0
03 16.05 ЮВ 7-11
{15}
50 км 10/0
[Ci sp]
+11.5 +6.5 71 +8 +12 тепло 1012.4 1006.8
06 16.05 ЮВ 7-11
{17}
50 км 10/0
[Ci sp]
+15.0 +6.9 58 +13 +15 тепло 1010.4 1004.9
09 16.05 ЮВ 5-11
{16}
50 км 8/3 600 м
[Sc Ci sp]
+10.5 +7.6 82 +8 +8 тепло 1009.9 1004.3 +15.5
12 16.05 ЮВ 9-16
{17}
20 км 10/10 600 м
[Sc]
+8.6 +7.2 91 +4 +4 по сезону 1010.7 1005.1
15 16.05 ЮВ 8-14
{16}
20 км 10/10 600 м
[Sc]
+7.3 +5.9 91 +2 +2 по сезону 1010.3 1004.6
18 16.05 ЮВ 7-11
{16}
20 км 4/4 600 м
[Sc]
+8.3 +6.5 88 +4 +4 тепло 1009.2 1003.6
21 16.05 ЮВ 5
{13}
50 км 10/8 600 м
[Sc Ci sp]
+9.3 +6.4 82 +6 +6 тепло 1010.1 1004.5 +7.3
00 17.05 ЮВ 7 50 км 10/3 600 м
[Sc Ac As]
+9.7 +6.4 80 +6 +7 по сезону 1010.8 1005.2 +8.2
03 17.05 ЮВ 8-14
{14}
50 км 10/3 600 м
[Sc Ac trans Ci sp]
+10.7 +6.9 77 +7 +8 по сезону 1009.6 1004.0
06 17.05 ЮВ 7-11
{14}
50 км 10/4 600 м
[Sc Ac trans]
+9.7 +7.2 84 +6 +6 по сезону 1007.9 1002.4
09 17.05 ЮВ 8-12
{15}
10 км слаб. ливневой дождь 10/10 300 м
[Cb cap]
+7.6 +6.2 91 +3 +3 по сезону 1006.4 1000.8 +12.5 0.0
12 17.05 ЮВ 4
{14}
500 м туман {ливн. осадки} н/о +6.6 +5.7 94 +3 +3 по сезону 1006.7 1001.0
15 17.05 СВ 1 20 км 4/3 600 м
[Sc]
+6.7 +5.6 93 +6 +6 тепло 1007.3 1001.6
18 17.05 СВ 1 20 км {туман} 4/4 600 м
[Sc]
+3.8 +3.0 95 +2 +2 по сезону 1007.8 1002.1
21 17.05 В 2 200 м туман н/о +6.6 +6.0 96 +4 +4 по сезону 1007.7 1002.1 +2.7 0.0
00 18.05 ЮВ 6 50 км {туман} 10/5 200 м
[St As trans]
+8.3 +7.4 94 +4 +5 по сезону 1005.5 999.9
03 18.05 ЮВ 7-10
{12}
20 км слаб. дождь 10/10 1000 м
[Sc]
+8.9 +7.4 90 +5 +5 по сезону 1003.4 997.9
06 18.05 В 6
{10}
50 км {дождь} 9/9 600 м
[Sc]
+9.8 +8.7 93 +6 +7 по сезону 1002.2 996.7
09 18.05 ЮВ 5 50 км 10/10 600 м
[Cb cap]
+10.5 +8.8 89 +7 +7 по сезону 1001.8 996.3 +11.4 2
12 18.05 В 3 20 км 10/10 1000 м
[Sc]
+8.8 +7.9 94 +6 +6 тепло 1001.8 996.3
15 18.05 СВ 3 2000 м ливневой дождь 10/10 300 м
[Cb cap]
+8.1 +7.0 93 +5 +5 тепло 1001.0 995.4
18 18.05 СВ 1 10 км слаб. ливневой дождь 10/10 600 м
[Cb cap]
+6.3 +5.4 94 +5 +5 тепло 999.8 994.2
21 18.05 СЗ 2 50 км {ливн. осадки} 8/8 600 м
[Cb cap]
+7.9 +7.2 95 +6 +6 тепло 1000.8 995.2 +5.3 3
00 19.05 З 5-10
{10}
50 км {ливн. осадки} 6/4 600 м
[Sc Ac As]
+15.0 +7.0 59 +14 +17 тепло 1001.1 995.7
03 19.05 З 7-13
{16}
50 км 8/8 600 м
[Sc]
+18.5 +1.7 32 +18 +19 тепло 1001.3 995.9
06 19.05 З 6-11
{14}
50 км 8/8 600 м
[Sc]
+21.2 +1.3 27 +21 +22 комфорт 1001.8 996.4
09 19.05 СВ 5
{12}
50 км 9/9 600 м
[Sc]
+13.5 +3.5 51 +12 +12 тепло 1004.4 998.9 +21.9
12 19.05 В 3 20 км 3/3 600 м
[Sc]
+10.3 +5.3 71 +8 +8 тепло 1006.5 1001.0
15 19.05 С 3 20 км 3/3 600 м
[Sc]
+5.6 +3.0 83 +2 +2 по сезону 1007.3 1001.6
18 19.05 штиль 0 20 км 3/3 600 м
[Sc Ci sp]
+3.7 +2.1 89 +3 +3 тепло 1007.0 1001.3
21 19.05 В 2 50 км 10/0
[As op]
+8.6 +5.5 81 +7 +7 тепло 1006.8 1001.2 +3.1
00 20.05 ЮВ 3 50 км 10/0
[As op]
+11.3 +7.6 78 +10 +11 тепло 1006.4 1000.8
03 20.05 В 3 50 км 10/0
[As op]
+11.4 +8.3 81 +10 +12 тепло 1006.6 1001.1
06 20.05 В 4
{11}
20 км слаб. дождь 10/10 600 м
[Sc]
+10.1 +8.6 90 +7 +7 по сезону 1004.9 999.3
09 20.05 ЮВ 7-11
{14}
20 км слаб. ливневой дождь 10/10 600 м
[Cb cap]
+9.8 +8.5 92 +6 +6 по сезону 1004.4 998.8 +12.9 1
12 20.05 ЮВ 5
{13}
10 км слаб. ливневой дождь 10/10 600 м
[Cb cap]
+9.1 +8.2 94 +6 +6 тепло 1003.5 998.0
15 20.05 ЮВ 7-13
{13}
10 км слаб. ливневой дождь 10/10 600 м
[Cb cap]
+8.0 +6.6 91 +3 +3 по сезону 1001.7 996.1
18 20.05 ЮВ 6-11
{13}
10 км слаб. ливневой дождь 10/10 600 м
[Cb cap]
+7.6 +7.0 96 +3 +3 тепло 999.7 994.2
21 20.05 ЮВ 8-13
{13}
50 км {ливн. осадки} 10/3 200 м
[St As op]
+8.1 +7.4 95 +3 +3 по сезону 998.9 993.3 +7.6 2
00 21.05 ЮВ 7-12
{14}
10 км слаб. ливневой дождь 10/10 100 м
[Cb cap]
+10.5 +9.2 92 +7 +7 по сезону 998.3 992.8

 

Местоположение метеостанции Николаевск-на-Амуре (Хабаровский край, Россия): широта 53.15 долгота 140.70 высота над уровнем моря 46 м.

В архиве по умолчанию представлена погода в Николаевск-на-Амуре за последнюю неделю. Архивные данные за месяц целиком и за предыдущие месяцы, начиная с января 2011 года, Вы можете получить, выбрав интересующий диапазон дат из раскрывающегося списка и нажав кнопку "Ввод!".


*Определитесь, кто Вы:
робот инопланетянин человек

Внимание! Время в таблицах - всемирное. Для получения местного времени необходимо прибавить поправку, которая равна 10 ч.

Смотрите также архив погоды в соседних городах и на ближайших метеорологических станциях:

Погода в Байдукове (Хабаровский край, Россия) (50 км)
Погода в Джаоре (Хабаровский край, Россия) (63 км)
Погода в Богородском (Хабаровский край, Россия) (88 км)
Погода в Литке (Хабаровский край, Россия) (93 км)
Погода в Погибях (Сахалинская область, Россия) (120 км)
Погода в Москальво (Сахалинская область, Россия) (128 км)
Погода в Удинске (Хабаровский край, Россия) (130 км)
Погода в Оха (Сахалинская область, Россия) (151 км)
Погода в Мариинском (Хабаровский край, Россия) (163 км)
Погода в Одопту (Сахалинская область, Россия) (169 км)

Пояснения к столбцам:

Ветер - указаны скорость ветра в м/с - средняя за 10 мин, порывы в срок и между сроками (в фигурных скобках) и направление, откуда дует ветер: С - северный, СВ - северо-восточный, В - восточный, ЮВ - юго-восточный, Ю - южный, ЮЗ - юго-западный, З - западный, СЗ - северо-западный.
Видимость - горизонтальная дальность видимости в метрах или километрах. При видимости от 1 до 10 км при отсутствии осадков обычно наблюдается дымка, при ухудшении видимости до 1 км и менее - туман. В сухую погоду видимость может ухудшаться дымом, пылью или мглою.
Явления - указаны атмосферные явления, наблюдавшиеся в срок или в последний час перед сроком; фигурными скобками обозначены явления, наблюдавшиеся между сроками (за 1-3 часа до срока); квадратными скобками обозначены град или гололедные отложения с указанием их диаметра в мм.
Облачность - указаны через наклонную черту общая и нижняя облачность в баллах и высота нижней границы облаков в метрах; квадратными скобками обозначены формы облаков: Ci - перистые, Cs - перисто-слоистые, Cc - перисто-кучевые, Ac - высококучевые, As - высокослоистые, Sc - слоисто-кучевые, Ns - слоисто-дождевые, Cu - кучевые, Cb - кучево-дождевые. Подробнее классификацию облаков см. в Атласе облаков (PDF).
T - Температура воздуха - температура, измеренная на высоте 2 м над землей.
Td - Температура точки росы - температура, при понижении до которой содержащийся в воздухе водяной пар достигнет насыщения.
f - Относительная влажность воздуха - влажноcть воздуха, измеренная на высоте 2 м над землей.
Te - Эффективная температура - температура, которую ощущает одетый по сезону человек в тени. Характеристика душности погоды. При расчете учитывается влияние влажности воздуха и скорости ветра на теплоощущения человека.
Tes - Эффективная температура на солнце - температура, которую ощущает человек, с поправкой на солнечный нагрев. Характеристика знойности погоды. Зависит от высоты солнца над горизонтом, облачности и скорости ветра. Ночью, в пасмурную погоду, а также при ветре 12 м/с и более поправка равна нулю.
P - Атмосферное давление - приведенное к уровню моря атмосферное давление.
Po - Атмосферное давление - измеренное на уровне метеостанции атмосферное давление.
Tmin - Минимальная температура - минимум температуры воздуха на высоте 2 м над землей.
Tmax - Максимальная температура - максимум температуры воздуха на высоте 2 м над землей.
R - Количество осадков - Количество выпавших осадков за период времени, мм. При наведении курсора мыши на число - период времени, за который выпало указанное количество осадков.
R24 - Количество осадков - Количество выпавших осадков за 24 часа, мм.
S - Снежный покров - Высота снежного покрова, см. При наведении курсора мыши на число - состояние снежного покрова и степень покрытия местности в баллах.